{"data":{"norad_id":63186,"intl_designator":"2025-048D","name":"STARLINK-11646 [DTC]","alt_names":[],"object_type":"PAYLOAD","status":"ACTIVE","operator":null,"country":"US","launch_date":"2025-03-13","launch_site_code":"AFETR","launch_vehicle":null,"mission":null,"orbit_class":"UNKNOWN","rcs_meters":null,"size_class":null,"mass_kg":null,"dimensions":null,"purposes":["comms"],"wikipedia_slug":null,"has_3d_model":false,"image_url":null,"decayed_at":null,"tle_current":{"epoch":"2026-09-21T21:32:27.166560Z","epoch_age_seconds":41513,"freshness":"FRESH","line1":"1 63186U 25048D   26264.89753665  .00205210  00000+0  15553-2 0  9992","line2":"2 63186  42.9999 216.8566 0001554 227.6406 132.4330 15.70966533 89383","mean_motion":15.70966533,"eccentricity":0.0001554,"inclination_deg":42.9999,"raan_deg":216.8566,"arg_perigee_deg":227.6406,"mean_anomaly_deg":132.433,"bstar":0.0015553,"rev_number":8938,"period_min":91.663314892527,"perigee_km":355.08692522326,"apogee_km":357.17993647317,"semimajor_km":6734.2704308482,"source":"CELESTRAK","updated_at":"2026-09-22T09:00:49.795055Z"}}}